This is the latest recevied weather packets stored in our database for station/object F4JUT-10. If no packets are shown the sender has not sent any weather packets the latest 10 day(s).
| Time | Temp. | Humidity | Pressure | Rain* | Wind** | Luminosity | Snow |
|---|---|---|---|---|---|---|---|
| 1777893515 | 10.56° C | 88% | 1018.9 hPa | - | - | - | - |
| 1777893468 | 10.56° C | 88% | 1018.9 hPa | - | - | - | - |
| 1777892568 | 10.56° C | 88% | 1018.9 hPa | - | - | - | - |
| 1777891668 | 10.56° C | 87% | 1019 hPa | - | - | - | - |
| 1777890768 | 10.56° C | 86% | 1018.9 hPa | - | - | - | - |
| 1777889868 | 10.56° C | 85% | 1018.9 hPa | - | - | - | - |
| 1777888968 | 10.56° C | 84% | 1018.9 hPa | - | - | - | - |
| 1777888068 | 10.56° C | 85% | 1018.9 hPa | - | - | - | - |
| 1777887167 | 10° C | 85% | 1018.8 hPa | - | - | - | - |
| 1777886267 | 10° C | 84% | 1018.7 hPa | - | - | - | - |
| 1777885367 | 10.56° C | 84% | 1018.6 hPa | - | - | - | - |
| 1777884467 | 10° C | 82% | 1018.6 hPa | - | - | - | - |
| 1777883567 | 10.56° C | 81% | 1018.5 hPa | - | - | - | - |
| 1777882667 | 10.56° C | 79% | 1018.5 hPa | - | - | - | - |
| 1777881767 | 11.11° C | 81% | 1018.3 hPa | - | - | - | - |
| 1777880867 | 11.11° C | 81% | 1018.3 hPa | - | - | - | - |
| 1777879967 | 10.56° C | 83% | 1018.1 hPa | - | - | - | - |
| 1777879067 | 10° C | 83% | 1018 hPa | - | - | - | - |
| 1777878166 | 10° C | 83% | 1017.9 hPa | - | - | - | - |
| 1777877276 | 10° C | 84% | 1017.8 hPa | - | - | - | - |
| 1777876376 | 10.56° C | 84% | 1017.8 hPa | - | - | - | - |
| 1777875476 | 10° C | 83% | 1017.6 hPa | - | - | - | - |
| 1777874575 | 10.56° C | 81% | 1017.6 hPa | - | - | - | - |
| 1777873675 | 10° C | 77% | 1017.6 hPa | - | - | - | - |
| 1777872775 | 10° C | 72% | 1017.5 hPa | - | - | - | - |
* Rain since midnight (hover to see other rain measurements)
** Current wind speed in m/s (hover to see current wind gust speed)